Location: Boiro
(42.6475°N, 8.8834°W)
Time: 17:30:12
(UTC+01:00)

Transit 2A - Pass Details

Date: 02 December 2021
Orbit: 591 x 967 km, 66.7° (Epoch: 20 January)

Event Time Altitude Azimuth Distance (km) Brightness Sun altitude
Rises 00:43:32 0° 166° (SSE) 3,229 - -67.6°
Reaches altitude 10° 00:46:25 10° 150° (SSE) 2,377 - -67.8°
Maximum altitude 00:50:21 20° 104° (ESE) 1,851 - -68.1°
Drops below altitude 10° 00:54:32 10° 59° (ENE) 2,564 - -68.4°
Sets 00:57:46 0° 44° (NE) 3,565 - -68.5°
